Home   Weather   Dachau   Past weeks

Flag for Germany Past Weather in Dachau, Bavaria, Germany — Yesterday and Last 2 Weeks

Now
72 °F

Sunny.


Feels Like: 77 °F
Forecast: 53 / 72 °F
Wind: 12 mph from Southwest

Location: Oberpfaffenhofen

Current Time: Sep 29, 2016 at 5:31:14 PM

Latest Report: Sep 29, 2016 at 4:50 PM


Visibility: 10 mi

Pressure: 30.15 "Hg (28.45 "Hg at 502m altitude)

Humidity: 41%

Dew Point: 46 °F

Location of DachauLocation

Past Weather in Dachau — Graph

°F

Dachau Temperature Yesterday

Maximum temperature yesterday: 68 °F (at 2:20 PM)
Minimum temperature yesterday: 48 °F (at 6:50 AM)
Average temperature yesterday: 60 °F

High & Low Weather Summary for the Past Weeks

 TemperatureHumidityPressure
High82 °F (Sep 15, 1:20 PM)100% (Sep 15, 6:50 AM)30.45 "Hg (Sep 15, 6:50 AM)
Low36 °F (Sep 22, 6:50 AM)26% (Sep 15, 2:20 PM)29.89 "Hg (Sep 15, 6:50 AM)
Average60 °F77%30.13 "Hg
* Reported Sep 14 4:20 PM — Sep 29 4:20 PM, Dachau, Weather by CustomWeather, © 2016

Note: Actual official high and low records may vary slightly from our data, if they occured in-between our weather recording intervals... More about our weather records

Advertising

Dachau Weather History for the Previous 24 Hours

Scroll right to see more
 ConditionsComfort  
Time TempWeatherWind HumidityBarometerVisibility
4:20 PM
Thu, Sep 29
73 °FSunny.13 mph36%30.15 "Hg10 mi
3:50 PM73 °FSunny.13 mph41%30.15 "Hg10 mi
3:20 PM73 °FSunny.14 mph41%30.18 "Hg10 mi
2:50 PM73 °FSunny.13 mph44%30.18 "Hg10 mi
2:20 PM72 °FSunny.13 mph50%30.21 "Hg10 mi
1:50 PM72 °FSunny.12 mph53%30.21 "Hg10 mi
1:20 PM72 °FPassing clouds.8 mph53%30.24 "HgN/A
12:50 PM70 °FPassing clouds.8 mph53%30.24 "HgN/A
12:20 PM70 °FPassing clouds.7 mph53%30.27 "HgN/A
11:50 AM68 °FSunny.8 mph53%30.27 "Hg10 mi
11:20 AM66 °FSunny.8 mph56%30.27 "Hg10 mi
10:50 AM66 °FSunny.3 mph60%30.30 "Hg10 mi
10:20 AM64 °FSunny.1 mph64%30.30 "Hg10 mi
9:50 AM61 °FSunny.2 mph77%30.30 "Hg10 mi
9:20 AM59 °FSunny.2 mph77%30.30 "Hg10 mi
8:50 AM55 °FSunny.2 mph82%30.30 "Hg10 mi
8:20 AM52 °FSunny.2 mph94%30.30 "Hg10 mi
7:50 AM50 °FSunny.1 mph88%30.30 "Hg10 mi
7:20 AM50 °FSunny.3 mph88%30.30 "Hg10 mi
6:50 AM48 °FClear.2 mph87%30.30 "Hg10 mi
7:50 PM
Wed, Sep 28
57 °FClear.7 mph77%30.39 "Hg10 mi
7:20 PM59 °FClear.9 mph72%30.39 "Hg10 mi
6:50 PM61 °FSunny.8 mph72%30.39 "Hg10 mi
6:20 PM64 °FSunny.8 mph64%30.39 "Hg10 mi
5:50 PM66 °FSunny.9 mph60%30.36 "Hg10 mi
5:20 PM66 °FSunny.9 mph60%30.36 "Hg10 mi
Weather by CustomWeather, © 2016

See weather overviewHow to use our weather pages